EW8758 Weather Reports


time (UTC)temp
C
wind
direction
speed
KPH
gust
KPH
rain 1hr
cm
rain 24hr
cm
rain mn
cm
humidity
%
barometer
mb
20260506080950 11 57 3.2 11.3 0.00 0.00 0.00 78 1007.9
20260506073257 11 59 3.2 12.9 0.00 0.00 0.00 78 1007.7
20260506072922 11 53 3.2 12.9 0.00 0.00 0.00 77 1007.6
20260506070826 11 59 1.6 9.7 0.00 0.00 0.00 79 1007.7
20260506061741 10 55 1.6 9.7 0.00 0.00 0.00 83 1007.4
20260506061125 10 57 1.6 12.9 0.00 0.00 0.00 85 1007.4
20260506060758 10 57 3.2 11.3 0.00 0.00 0.00 84 1007.4
20260506050603 9 57 0.0 6.4 0.00 0.00 0.00 86 1007.2
20260506044522 9 57 1.6 4.8 0.00 0.00 0.00 86 1007.4
20260506043506 9 57 1.6 8.0 0.00 0.00 0.00 86 1007.3
20260506042458 9 57 1.6 6.4 0.00 0.00 0.00 87 1007.3
20260506041507 9 57 0.0 6.4 0.00 0.00 0.00 86 1007.4
20260506040452 9 57 0.0 4.8 0.00 0.00 0.00 87 1007.4
20260506035421 9 57 0.0 4.8 0.00 0.00 0.00 87 1007.4
20260506034346 9 57 0.0 3.2 0.00 0.00 0.00 87 1007.5
20260506033341 9 57 0.0 4.8 0.00 0.00 0.00 86 1007.5
20260506032332 9 57 0.0 4.8 0.00 0.00 0.00 87 1007.6
20260506031323 9 57 0.0 3.2 0.00 0.00 0.00 87 1007.7
20260506030313 9 57 0.0 3.2 0.00 0.00 0.00 87 1007.8
20260506030226 9 57 1.6 8.0 0.00 0.00 0.00 87 1007.9
20260506024234 9 57 0.0 8.0 0.00 0.00 0.00 87 1008.0
20260506023231 9 57 1.6 6.4 0.00 0.00 0.00 88 1008.0
20260506022232 9 57 0.0 6.4 0.00 0.00 0.00 88 1008.0
20260506021213 8 57 1.6 8.0 0.00 0.00 0.00 89 1008.1
20260506020152 8 57 1.6 6.4 0.00 0.00 0.00 89 1008.1
20260506015146 8 57 0.0 4.8 0.00 0.00 0.00 90 1008.3
20260506014134 8 57 0.0 4.8 0.00 0.00 0.00 90 1008.3
20260506013101 8 57 1.6 6.4 0.00 0.00 0.00 90 1008.4
20260506012041 8 57 0.0 4.8 0.00 0.00 0.00 90 1008.3
20260506011027 8 57 1.6 8.0 0.00 0.00 0.00 90 1008.5
20260506010011 8 57 3.2 8.0 0.00 0.00 0.00 90 1008.6
20260506005000 8 59 1.6 8.0 0.00 0.00 0.00 89 1008.7
20260506004000 8 59 1.6 8.0 0.00 0.00 0.00 89 1008.8
20260506002957 8 59 1.6 8.0 0.00 0.00 0.00 89 1008.8
20260506001957 8 59 1.6 9.7 0.00 0.00 0.00 88 1008.9
20260506000948 8 59 3.2 9.7 0.00 0.00 0.00 88 1008.9
20260506000408 9 59 3.2 9.7 0.00 0.00 0.00 86 1009.1
20260506000032 8 59 1.6 9.7 0.00 0.00 0.00 87 1009.0
20260505233933 9 61 3.2 12.9 0.00 0.00 0.00 85 1009.2
20260505232908 9 61 3.2 11.3 0.00 0.00 0.00 84 1009.2
20260505232243 10 96 1.6 8.0 0.00 0.00 0.00 83 1009.2
20260505231914 9 61 4.8 14.5 0.00 0.00 0.00 83 1009.1
20260505225800 10 98 3.2 14.5 0.00 0.00 0.00 83 1009.3
20260505225201 10 56 1.6 8.0 0.00 0.00 0.00 82 1009.4
20260505224848 10 56 1.6 12.9 0.00 0.00 0.00 82 1009.3
20260505222802 10 56 1.6 9.7 0.00 0.00 0.00 82 1009.5
20260505221731 10 53 1.6 11.3 0.00 0.00 0.00 82 1009.5
20260505220740 10 49 1.6 8.0 0.00 0.00 0.00 82 1009.5
20260505220218 10 49 1.6 14.5 0.00 0.00 0.00 82 1009.5
20260505220056 10 45 1.6 8.0 0.00 0.00 0.00 82 1009.5
20260505215842 10 51 3.2 14.5 0.00 0.00 0.00 82 1009.4
20260505212657 10 49 1.6 11.3 0.00 0.00 0.00 82 1009.5
20260505211630 10 52 3.2 14.5 0.00 0.00 0.00 81 1009.6
20260505210625 10 61 3.2 12.9 0.00 0.00 0.00 81 1009.6
20260505205622 10 55 1.6 8.0 0.00 0.00 0.00 81 1009.8
20260505204622 10 55 3.2 9.7 0.00 0.00 0.00 81 1009.8
20260505203612 10 55 3.2 11.3 0.00 0.00 0.00 81 1009.9
20260505202922 10 66 1.6 9.7 0.00 0.00 0.00 80 1009.8
20260505202555 10 61 1.6 6.4 0.00 0.00 0.00 81 1009.8
20260505200456 10 66 1.6 8.0 0.00 0.00 0.00 80 1009.8
20260505195423 10 66 3.2 11.3 0.00 0.00 0.00 79 1009.8
20260505195322 10 66 3.2 11.3 0.00 0.00 0.00 79 1009.7
20260505193632 11 47 1.6 9.7 0.00 0.00 0.00 79 1009.5
20260505193336 10 49 3.2 9.7 0.00 0.00 0.00 79 1009.7
20260505193317 11 47 3.2 9.7 0.00 0.00 0.00 79 1009.6
20260505190246 11 46 3.2 11.3 0.00 0.00 0.00 79 1009.4
20260505185621 11 57 3.2 11.3 0.00 0.00 0.00 79 1009.2
20260505185259 11 53 3.2 9.7 0.00 0.00 0.00 79 1009.3
20260505183208 11 57 3.2 8.0 0.00 0.00 0.00 79 1009.2
20260505182143 11 57 3.2 9.7 0.00 0.00 0.00 79 1009.2
20260505181112 11 57 1.6 9.7 0.00 0.00 0.00 79 1009.2
20260505180438 11 59 3.2 12.9 0.00 0.00 0.00 78 1009.2
20260505180110 11 58 3.2 9.7 0.00 0.00 0.00 79 1009.1
20260505174036 11 59 1.6 6.4 0.00 0.00 0.00 78 1009.2
20260505173039 11 59 1.6 11.3 0.00 0.00 0.00 78 1009.3
20260505172017 11 60 1.6 6.4 0.00 0.00 0.00 78 1009.3
20260505171349 11 61 3.2 8.0 0.00 0.00 0.00 77 1009.5
20260505171016 11 60 3.2 9.7 0.00 0.00 0.00 78 1009.5
20260505164920 12 62 1.6 9.7 0.00 0.00 0.00 77 1009.5
20260505163909 12 63 1.6 8.0 0.00 0.00 0.00 77 1009.5
20260505162838 12 63 1.6 16.1 0.00 0.00 0.00 76 1009.5
20260505161815 12 68 3.2 12.9 0.00 0.00 0.00 75 1009.6
20260505160815 12 68 3.2 9.7 0.00 0.00 0.00 74 1009.4
20260505152654 13 76 4.8 11.3 0.00 0.00 0.00 71 1009.7
20260505151621 13 95 4.8 14.5 0.00 0.00 0.00 71 1009.6
20260505150551 13 73 4.8 14.5 0.00 0.00 0.00 70 1009.5
20260505140459 13 111 3.2 12.9 0.00 0.00 0.00 71 1009.6
20260505124305 12 63 1.6 11.3 0.00 0.00 0.00 76 1010.5
20260505123255 12 63 1.6 8.0 0.00 0.00 0.00 77 1010.4
20260505122247 12 62 1.6 6.4 0.00 0.00 0.00 78 1010.6
20260505122200 11 62 1.6 9.7 0.00 0.00 0.00 78 1010.6
20260505120240 11 61 1.6 8.0 0.00 0.00 0.00 79 1010.6
20260505115241 11 61 1.6 9.7 0.00 0.00 0.00 80 1010.6
20260505114242 11 62 1.6 11.3 0.00 0.00 0.00 81 1010.5
20260505113209 11 63 1.6 8.0 0.00 0.00 0.00 81 1010.7
20260505112219 11 63 1.6 8.0 0.00 0.00 0.00 82 1010.7
20260505111206 11 63 3.2 9.7 0.00 0.00 0.00 83 1010.6
20260505110155 11 66 3.2 8.0 0.00 0.00 0.00 82 1010.7
20260505101042 10 75 1.6 11.3 0.00 0.00 0.00 85 1011.2
20260505100012 10 78 3.2 11.3 0.00 0.00 0.00 86 1011.2
20260505095012 10 93 3.2 9.7 0.00 0.00 0.00 87 1011.3
20260505094009 10 101 3.2 9.7 0.00 0.00 0.00 87 1011.4
20260505093015 10 56 1.6 8.0 0.00 0.00 0.00 87 1011.5
20260505091948 10 56 3.2 8.0 0.00 0.00 0.00 87 1011.5
20260505091425 10 56 1.6 9.7 0.00 0.00 0.00 87 1011.4
20260505085936 10 57 3.2 12.9 0.00 0.00 0.00 88 1011.3
20260505084921 10 53 3.2 8.0 0.00 0.00 0.00 89 1011.4
20260505083922 9 53 3.2 11.3 0.00 0.00 0.00 90 1011.4
20260505082856 9 52 3.2 11.3 0.00 0.00 0.00 91 1011.4
20260505081838 9 51 1.6 9.7 0.00 0.00 0.00 92 1011.4
20260505081151 9 51 1.6 6.4 0.00 0.00 0.00 92 1011.3